| time (UTC) | temp F | wind direction | speed MPH | gust MPH | rain 1hr in | rain 24hr in | rain mn in | humidity % | barometer mb |
| 20260902042659 | 67 | 129 | 0.0 | 0.0 | 0.00 | 0.00 | 0.00 | 93 | 1045.6 |
| 20260902042155 | 67 | 129 | 0.0 | 0.0 | 0.00 | 0.00 | 0.00 | 93 | 1045.5 |
| 20260902041654 | 67 | 129 | 0.0 | 0.0 | 0.00 | 0.00 | 0.00 | 93 | 1045.6 |
| 20260902041149 | 67 | 129 | 0.0 | 0.0 | 0.00 | 0.00 | 0.00 | 93 | 1045.3 |
| 20260902040649 | 67 | 130 | 0.0 | 0.0 | 0.00 | 0.00 | 0.00 | 94 | 1045.3 |
| 20260902040144 | 68 | 122 | 0.0 | 0.0 | 0.00 | 0.00 | 0.00 | 94 | 1045.4 |
| 20260902035642 | 68 | 126 | 0.0 | 0.0 | 0.00 | 0.00 | 0.00 | 93 | 1045.6 |
| 20260902035138 | 68 | 126 | 0.0 | 0.0 | 0.00 | 0.00 | 0.00 | 93 | 1045.8 |
| 20260902034636 | 68 | 126 | 0.0 | 0.0 | 0.00 | 0.00 | 0.00 | 93 | 1045.8 |
| 20260902034131 | 68 | 126 | 0.0 | 0.0 | 0.00 | 0.00 | 0.00 | 93 | 1045.9 |
| 20260902033631 | 68 | 126 | 0.0 | 0.0 | 0.00 | 0.00 | 0.00 | 93 | 1045.7 |
| 20260902033125 | 68 | 126 | 0.0 | 0.0 | 0.00 | 0.00 | 0.00 | 93 | 1045.9 |
| 20260902032623 | 68 | 129 | 0.0 | 0.0 | 0.00 | 0.00 | 0.00 | 92 | 1045.7 |
| 20260902032118 | 68 | 130 | 0.0 | 0.0 | 0.00 | 0.00 | 0.00 | 92 | 1045.7 |
| 20260902031613 | 68 | 129 | 0.0 | 0.0 | 0.00 | 0.00 | 0.00 | 92 | 1045.6 |
| 20260902031109 | 68 | 126 | 0.0 | 0.0 | 0.00 | 0.00 | 0.00 | 92 | 1045.6 |
| 20260902030604 | 68 | 126 | 0.0 | 0.0 | 0.00 | 0.00 | 0.00 | 91 | 1045.7 |
| 20260902030103 | 68 | 140 | 0.0 | 1.0 | 0.00 | 0.00 | 0.00 | 90 | 1045.8 |
| 20260902025558 | 68 | 142 | 0.0 | 0.0 | 0.00 | 0.00 | 0.00 | 89 | 1045.3 |
| 20260902025053 | 68 | 142 | 0.0 | 0.0 | 0.00 | 0.00 | 0.00 | 89 | 1045.4 |
| 20260902024549 | 68 | 142 | 0.0 | 0.0 | 0.00 | 0.00 | 0.00 | 89 | 1045.4 |
| 20260902024048 | 68 | 142 | 0.0 | 0.0 | 0.00 | 0.00 | 0.00 | 89 | 1045.2 |
| 20260902023544 | 69 | 142 | 0.0 | 0.0 | 0.00 | 0.00 | 0.00 | 88 | 1045.4 |
| 20260902023039 | 69 | 142 | 0.0 | 0.0 | 0.00 | 0.00 | 0.00 | 87 | 1045.4 |
| 20260902022533 | 69 | 142 | 0.0 | 0.0 | 0.00 | 0.00 | 0.00 | 84 | 1045.6 |
| 20260902022029 | 69 | 142 | 0.0 | 0.0 | 0.00 | 0.00 | 0.00 | 87 | 1045.2 |
| 20260902021525 | 69 | 142 | 0.0 | 0.0 | 0.00 | 0.00 | 0.00 | 86 | 1045.3 |
| 20260902021020 | 69 | 142 | 0.0 | 0.0 | 0.00 | 0.00 | 0.00 | 87 | 1045.2 |
| 20260902020515 | 69 | 141 | 0.0 | 0.0 | 0.00 | 0.00 | 0.00 | 87 | 1044.9 |
| 20260902020011 | 70 | 141 | 0.0 | 0.0 | 0.00 | 0.00 | 0.00 | 88 | 1044.9 |
| 20260902015512 | 70 | 141 | 0.0 | 0.0 | 0.00 | 0.00 | 0.00 | 86 | 1045.4 |
| 20260902015007 | 70 | 142 | 0.0 | 0.0 | 0.00 | 0.00 | 0.00 | 83 | 1045.4 |
| 20260902014503 | 70 | 142 | 0.0 | 0.0 | 0.00 | 0.00 | 0.00 | 83 | 1045.2 |
| 20260902013959 | 70 | 142 | 0.0 | 0.0 | 0.00 | 0.00 | 0.00 | 84 | 1044.9 |
| 20260902013453 | 70 | 142 | 0.0 | 0.0 | 0.00 | 0.00 | 0.00 | 84 | 1044.7 |
| 20260902012948 | 70 | 142 | 0.0 | 0.0 | 0.00 | 0.00 | 0.00 | 80 | 1044.8 |
| 20260902012444 | 70 | 142 | 0.0 | 0.0 | 0.00 | 0.00 | 0.00 | 83 | 1044.6 |
| 20260902011939 | 71 | 142 | 0.0 | 0.0 | 0.00 | 0.00 | 0.00 | 83 | 1044.5 |
| 20260902011435 | 71 | 142 | 0.0 | 0.0 | 0.00 | 0.00 | 0.00 | 81 | 1044.7 |
| 20260902010934 | 71 | 142 | 0.0 | 0.0 | 0.00 | 0.00 | 0.00 | 79 | 1044.9 |
| 20260902010429 | 71 | 142 | 0.0 | 0.0 | 0.00 | 0.00 | 0.00 | 78 | 1044.7 |
| 20260902005928 | 71 | 142 | 0.0 | 0.0 | 0.00 | 0.00 | 0.00 | 78 | 1044.9 |
| 20260902005427 | 72 | 142 | 0.0 | 0.0 | 0.00 | 0.00 | 0.00 | 79 | 1044.8 |
| 20260902004924 | 72 | 142 | 0.0 | 0.0 | 0.00 | 0.00 | 0.00 | 79 | 1045.0 |
| 20260902004423 | 73 | 141 | 0.0 | 0.0 | 0.00 | 0.00 | 0.00 | 75 | 1045.0 |
| 20260902003918 | 74 | 141 | 0.0 | 0.0 | 0.00 | 0.00 | 0.00 | 71 | 1044.9 |
| 20260902003413 | 74 | 141 | 0.0 | 0.0 | 0.00 | 0.00 | 0.00 | 69 | 1045.1 |
| 20260902002909 | 74 | 145 | 0.0 | 0.0 | 0.00 | 0.00 | 0.00 | 70 | 1045.1 |
| 20260902002409 | 74 | 145 | 0.0 | 0.0 | 0.00 | 0.00 | 0.00 | 70 | 1045.0 |
| 20260902001904 | 75 | 145 | 0.0 | 0.0 | 0.00 | 0.00 | 0.00 | 71 | 1044.8 |
| 20260902001358 | 75 | 142 | 0.0 | 0.0 | 0.00 | 0.00 | 0.00 | 69 | 1044.9 |
| 20260902000853 | 76 | 142 | 0.0 | 0.0 | 0.00 | 0.00 | 0.00 | 68 | 1044.9 |
| 20260902000353 | 76 | 142 | 0.0 | 0.0 | 0.00 | 0.00 | 0.00 | 68 | 1045.0 |
| 20260901235848 | 76 | 148 | 0.0 | 0.0 | 0.00 | 0.00 | 0.00 | 68 | 1044.8 |
| 20260901235343 | 77 | 148 | 0.0 | 0.0 | 0.00 | 0.00 | 0.00 | 67 | 1045.0 |
| 20260901234838 | 77 | 148 | 0.0 | 0.0 | 0.00 | 0.00 | 0.00 | 66 | 1045.0 |
| 20260901234332 | 78 | 148 | 0.0 | 0.0 | 0.00 | 0.00 | 0.00 | 66 | 1045.0 |
| 20260901233827 | 79 | 142 | 0.0 | 0.0 | 0.00 | 0.00 | 0.00 | 65 | 1045.1 |
| 20260901233323 | 80 | 155 | 0.0 | 1.0 | 0.00 | 0.00 | 0.00 | 64 | 1045.3 |
| 20260901232819 | 80 | 151 | 0.0 | 0.0 | 0.00 | 0.00 | 0.00 | 58 | 1045.0 |
| 20260901232313 | 80 | 153 | 0.0 | 1.0 | 0.00 | 0.00 | 0.00 | 59 | 1044.9 |
| 20260901231809 | 80 | 158 | 0.0 | 1.0 | 0.00 | 0.00 | 0.00 | 60 | 1044.9 |
| 20260901231305 | 79 | 151 | 0.0 | 1.0 | 0.00 | 0.00 | 0.00 | 59 | 1044.8 |
| 20260901230801 | 79 | 119 | 1.0 | 1.0 | 0.00 | 0.00 | 0.00 | 60 | 1044.8 |
| 20260901230255 | 80 | 149 | 0.0 | 0.0 | 0.00 | 0.00 | 0.00 | 58 | 1044.8 |
| 20260901225750 | 80 | 150 | 0.0 | 0.0 | 0.00 | 0.00 | 0.00 | 59 | 1044.9 |
| 20260901225250 | 81 | 162 | 0.0 | 1.0 | 0.00 | 0.00 | 0.00 | 55 | 1044.9 |
| 20260901224746 | 81 | 137 | 0.0 | 1.0 | 0.00 | 0.00 | 0.00 | 55 | 1044.8 |
| 20260901224237 | 83 | 142 | 0.0 | 1.0 | 0.00 | 0.00 | 0.00 | 57 | 1044.9 |
| 20260901223733 | 84 | 188 | 1.0 | 1.0 | 0.00 | 0.00 | 0.00 | 52 | 1044.9 |
| 20260901223227 | 84 | 156 | 1.0 | 1.0 | 0.00 | 0.00 | 0.00 | 52 | 1044.9 |
| 20260901222723 | 84 | 185 | 1.0 | 1.0 | 0.00 | 0.00 | 0.00 | 50 | 1044.9 |
| 20260901222219 | 83 | 130 | 1.0 | 1.0 | 0.00 | 0.00 | 0.00 | 50 | 1045.0 |
| 20260901221715 | 82 | 134 | 0.0 | 0.0 | 0.00 | 0.00 | 0.00 | 53 | 1044.8 |
| 20260901221211 | 82 | 127 | 1.0 | 1.0 | 0.00 | 0.00 | 0.00 | 51 | 1044.9 |
| 20260901220709 | 82 | 129 | 0.0 | 0.0 | 0.00 | 0.00 | 0.00 | 50 | 1044.7 |
| 20260901220209 | 82 | 152 | 1.0 | 1.0 | 0.00 | 0.00 | 0.00 | 49 | 1044.6 |
| 20260901215707 | 82 | 162 | 1.0 | 1.0 | 0.00 | 0.00 | 0.00 | 47 | 1044.9 |
| 20260901215202 | 83 | 126 | 1.0 | 2.0 | 0.00 | 0.00 | 0.00 | 51 | 1044.6 |
| 20260901214700 | 83 | 153 | 0.0 | 1.0 | 0.00 | 0.00 | 0.00 | 48 | 1044.5 |
| 20260901214154 | 84 | 142 | 1.0 | 2.0 | 0.00 | 0.00 | 0.00 | 46 | 1044.5 |
| 20260901213649 | 84 | 1 | 3.0 | 3.0 | 0.00 | 0.00 | 0.00 | 41 | 1044.6 |
| 20260901213144 | 83 | 157 | 0.0 | 1.0 | 0.00 | 0.00 | 0.00 | 45 | 1044.3 |
| 20260901212643 | 83 | 113 | 1.0 | 2.0 | 0.00 | 0.00 | 0.00 | 45 | 1044.3 |
| 20260901212140 | 84 | 135 | 0.0 | 2.0 | 0.00 | 0.00 | 0.00 | 44 | 1044.7 |
| 20260901211634 | 84 | 73 | 1.0 | 2.0 | 0.00 | 0.00 | 0.00 | 48 | 1044.8 |
| 20260901211131 | 84 | 110 | 1.0 | 2.0 | 0.00 | 0.00 | 0.00 | 46 | 1044.8 |
| 20260901210626 | 85 | 156 | 0.0 | 1.0 | 0.00 | 0.00 | 0.00 | 49 | 1045.0 |
| 20260901210122 | 85 | 133 | 0.0 | 0.0 | 0.00 | 0.00 | 0.00 | 49 | 1044.8 |
| 20260901205618 | 85 | 156 | 0.0 | 2.0 | 0.00 | 0.00 | 0.00 | 46 | 1045.0 |
| 20260901205117 | 86 | 155 | 1.0 | 2.0 | 0.00 | 0.00 | 0.00 | 46 | 1044.8 |
| 20260901204613 | 85 | 158 | 1.0 | 3.0 | 0.00 | 0.00 | 0.00 | 49 | 1044.8 |
| 20260901204108 | 84 | 132 | 0.0 | 0.0 | 0.00 | 0.00 | 0.00 | 52 | 1045.1 |
| 20260901203608 | 82 | 141 | 0.0 | 2.0 | 0.00 | 0.00 | 0.00 | 49 | 1045.0 |
| 20260901203103 | 83 | 132 | 0.0 | 1.0 | 0.00 | 0.00 | 0.00 | 49 | 1044.9 |
| 20260901202602 | 82 | 339 | 1.0 | 2.0 | 0.00 | 0.00 | 0.00 | 48 | 1045.0 |
| 20260901202059 | 82 | 126 | 0.0 | 1.0 | 0.00 | 0.00 | 0.00 | 49 | 1045.1 |
| 20260901201554 | 82 | 101 | 1.0 | 1.0 | 0.00 | 0.00 | 0.00 | 47 | 1045.1 |
| 20260901201053 | 83 | 121 | 0.0 | 1.0 | 0.00 | 0.00 | 0.00 | 49 | 1045.5 |
| 20260901200553 | 83 | 152 | 0.0 | 1.0 | 0.00 | 0.00 | 0.00 | 51 | 1045.3 |
| 20260901200048 | 83 | 130 | 0.0 | 1.0 | 0.00 | 0.00 | 0.00 | 49 | 1045.0 |
| 20260901195546 | 83 | 157 | 1.0 | 1.0 | 0.00 | 0.00 | 0.00 | 46 | 1044.9 |
| 20260901195046 | 84 | 120 | 1.0 | 2.0 | 0.00 | 0.00 | 0.00 | 43 | 1045.1 |
| 20260901194541 | 85 | 75 | 2.0 | 2.0 | 0.00 | 0.00 | 0.00 | 42 | 1045.2 |
| 20260901194037 | 87 | 140 | 2.0 | 3.0 | 0.00 | 0.00 | 0.00 | 41 | 1045.3 |
| 20260901193536 | 87 | 79 | 3.0 | 3.0 | 0.00 | 0.00 | 0.00 | 41 | 1045.3 |
| 20260901193031 | 87 | 246 | 2.0 | 3.0 | 0.00 | 0.00 | 0.00 | 42 | 1045.3 |
| 20260901192526 | 86 | 142 | 1.0 | 1.0 | 0.00 | 0.00 | 0.00 | 47 | 1045.2 |
| 20260901192022 | 86 | 7 | 1.0 | 1.0 | 0.00 | 0.00 | 0.00 | 47 | 1045.3 |
| 20260901191518 | 85 | 165 | 1.0 | 2.0 | 0.00 | 0.00 | 0.00 | 49 | 1045.2 |
| 20260901191014 | 84 | 161 | 2.0 | 2.0 | 0.00 | 0.00 | 0.00 | 50 | 1045.4 |
| 20260901190509 | 84 | 133 | 1.0 | 1.0 | 0.00 | 0.00 | 0.00 | 51 | 1045.3 |
| 20260901190008 | 84 | 121 | 0.0 | 2.0 | 0.00 | 0.00 | 0.00 | 50 | 1045.4 |
| 20260901185501 | 84 | 113 | 0.0 | 2.0 | 0.00 | 0.00 | 0.00 | 49 | 1045.5 |
| 20260901185000 | 84 | 38 | 2.0 | 2.0 | 0.00 | 0.00 | 0.00 | 48 | 1045.6 |
| 20260901184455 | 86 | 143 | 2.0 | 2.0 | 0.00 | 0.00 | 0.00 | 44 | 1045.5 |
| 20260901183951 | 86 | 278 | 2.0 | 2.0 | 0.00 | 0.00 | 0.00 | 50 | 1045.6 |
| 20260901183445 | 86 | 131 | 2.0 | 2.0 | 0.00 | 0.00 | 0.00 | 45 | 1045.7 |
| 20260901182941 | 85 | 160 | 1.0 | 2.0 | 0.00 | 0.00 | 0.00 | 51 | 1046.0 |
| 20260901182437 | 85 | 144 | 2.0 | 2.0 | 0.00 | 0.00 | 0.00 | 53 | 1045.8 |
| 20260901181931 | 84 | 150 | 0.0 | 1.0 | 0.00 | 0.00 | 0.00 | 50 | 1045.8 |
| 20260901181426 | 83 | 175 | 1.0 | 2.0 | 0.00 | 0.00 | 0.00 | 51 | 1046.0 |
| 20260901180925 | 84 | 144 | 1.0 | 3.0 | 0.00 | 0.00 | 0.00 | 50 | 1045.9 |
| 20260901180424 | 84 | 123 | 1.0 | 2.0 | 0.00 | 0.00 | 0.00 | 47 | 1046.2 |
| 20260901175922 | 84 | 193 | 1.0 | 2.0 | 0.00 | 0.00 | 0.00 | 49 | 1046.0 |
| 20260901175418 | 84 | 191 | 1.0 | 2.0 | 0.00 | 0.00 | 0.00 | 52 | 1045.9 |
| 20260901174913 | 83 | 149 | 0.0 | 1.0 | 0.00 | 0.00 | 0.00 | 54 | 1046.2 |
| 20260901174409 | 83 | 162 | 1.0 | 2.0 | 0.00 | 0.00 | 0.00 | 56 | 1046.1 |
| 20260901173904 | 83 | 160 | 1.0 | 1.0 | 0.00 | 0.00 | 0.00 | 56 | 1046.0 |
| 20260901173359 | 83 | 198 | 1.0 | 3.0 | 0.00 | 0.00 | 0.00 | 56 | 1046.3 |
| 20260901172856 | 81 | 157 | 0.0 | 1.0 | 0.00 | 0.00 | 0.00 | 60 | 1046.2 |
| 20260901172354 | 81 | 140 | 0.0 | 1.0 | 0.00 | 0.00 | 0.00 | 60 | 1046.4 |
| 20260901171853 | 81 | 210 | 1.0 | 2.0 | 0.00 | 0.00 | 0.00 | 61 | 1046.2 |
| 20260901171352 | 80 | 296 | 3.0 | 3.0 | 0.00 | 0.00 | 0.00 | 61 | 1046.2 |
| 20260901170851 | 80 | 161 | 0.0 | 2.0 | 0.00 | 0.00 | 0.00 | 59 | 1046.3 |
| 20260901170346 | 80 | 115 | 1.0 | 1.0 | 0.00 | 0.00 | 0.00 | 61 | 1046.3 |
| 20260901165846 | 80 | 148 | 1.0 | 2.0 | 0.00 | 0.00 | 0.00 | 61 | 1046.2 |
| 20260901165340 | 80 | 110 | 1.0 | 1.0 | 0.00 | 0.00 | 0.00 | 64 | 1046.3 |
| 20260901164837 | 79 | 151 | 1.0 | 2.0 | 0.00 | 0.00 | 0.00 | 63 | 1046.4 |
| 20260901164332 | 79 | 133 | 0.0 | 1.0 | 0.00 | 0.00 | 0.00 | 64 | 1046.4 |
| 20260901163831 | 79 | 156 | 1.0 | 2.0 | 0.00 | 0.00 | 0.00 | 66 | 1046.4 |
| 20260901163327 | 79 | 144 | 0.0 | 1.0 | 0.00 | 0.00 | 0.00 | 65 | 1046.5 |
| 20260901162822 | 78 | 241 | 1.0 | 2.0 | 0.00 | 0.00 | 0.00 | 68 | 1046.3 |
| 20260901162321 | 78 | 122 | 0.0 | 1.0 | 0.00 | 0.00 | 0.00 | 66 | 1046.3 |
| 20260901161820 | 78 | 97 | 2.0 | 2.0 | 0.00 | 0.00 | 0.00 | 64 | 1046.6 |
| 20260901161315 | 79 | 155 | 0.0 | 2.0 | 0.00 | 0.00 | 0.00 | 62 | 1046.5 |
| 20260901160810 | 77 | 146 | 0.0 | 1.0 | 0.00 | 0.00 | 0.00 | 69 | 1046.4 |
| 20260901160306 | 78 | 207 | 1.0 | 2.0 | 0.00 | 0.00 | 0.00 | 68 | 1046.5 |
| 20260901155805 | 78 | 114 | 1.0 | 2.0 | 0.00 | 0.00 | 0.00 | 68 | 1046.3 |
| 20260901155300 | 77 | 169 | 1.0 | 3.0 | 0.00 | 0.00 | 0.00 | 71 | 1046.5 |
| 20260901154756 | 77 | 121 | 1.0 | 1.0 | 0.00 | 0.00 | 0.00 | 70 | 1046.8 |
| 20260901154250 | 76 | 108 | 2.0 | 2.0 | 0.00 | 0.00 | 0.00 | 72 | 1046.7 |
| 20260901153745 | 76 | 130 | 0.0 | 1.0 | 0.00 | 0.00 | 0.00 | 72 | 1046.5 |
| 20260901153245 | 76 | 79 | 2.0 | 2.0 | 0.00 | 0.00 | 0.00 | 76 | 1046.6 |
| 20260901152744 | 75 | 143 | 0.0 | 2.0 | 0.00 | 0.00 | 0.00 | 75 | 1046.6 |
| 20260901152243 | 75 | 340 | 2.0 | 2.0 | 0.00 | 0.00 | 0.00 | 75 | 1046.5 |
| 20260901151738 | 74 | 140 | 0.0 | 1.0 | 0.00 | 0.00 | 0.00 | 76 | 1046.4 |
| 20260901151233 | 74 | 73 | 2.0 | 3.0 | 0.00 | 0.00 | 0.00 | 78 | 1046.7 |
| 20260901150732 | 74 | 145 | 0.0 | 2.0 | 0.00 | 0.00 | 0.00 | 77 | 1046.7 |
| 20260901150230 | 74 | 167 | 1.0 | 2.0 | 0.00 | 0.00 | 0.00 | 77 | 1046.6 |
| 20260901145728 | 73 | 90 | 0.0 | 2.0 | 0.00 | 0.00 | 0.00 | 77 | 1046.5 |
| 20260901145228 | 73 | 90 | 1.0 | 2.0 | 0.00 | 0.00 | 0.00 | 80 | 1046.7 |
| 20260901144724 | 72 | 63 | 1.0 | 1.0 | 0.00 | 0.00 | 0.00 | 82 | 1046.8 |
| 20260901144219 | 71 | 155 | 1.0 | 2.0 | 0.00 | 0.00 | 0.00 | 84 | 1046.6 |
| 20260901143714 | 70 | 137 | 0.0 | 1.0 | 0.00 | 0.00 | 0.00 | 89 | 1046.5 |
| 20260901143210 | 69 | 139 | 0.0 | 1.0 | 0.00 | 0.00 | 0.00 | 94 | 1046.7 |
| 20260901142706 | 68 | 146 | 1.0 | 2.0 | 0.00 | 0.00 | 0.00 | 99 | 1046.8 |
| 20260901142205 | 66 | 72 | 0.0 | 2.0 | 0.00 | 0.00 | 0.00 | 99 | 1046.6 |
| 20260901141701 | 66 | 151 | 1.0 | 1.0 | 0.00 | 0.00 | 0.00 | 99 | 1046.7 |
| 20260901141201 | 65 | 160 | 0.0 | 1.0 | 0.00 | 0.00 | 0.00 | 99 | 1046.6 |
| 20260901140659 | 66 | 181 | 1.0 | 2.0 | 0.00 | 0.00 | 0.00 | 99 | 1046.9 |
| 20260901140158 | 66 | 140 | 0.0 | 0.0 | 0.00 | 0.00 | 0.00 | 99 | 1046.8 |
| 20260901135654 | 66 | 145 | 0.0 | 0.0 | 0.00 | 0.00 | 0.00 | 99 | 1046.7 |
| 20260901135148 | 65 | 148 | 0.0 | 0.0 | 0.00 | 0.00 | 0.00 | 99 | 1046.5 |
| 20260901134644 | 65 | 155 | 0.0 | 0.0 | 0.00 | 0.00 | 0.00 | 99 | 1046.6 |
| 20260901134139 | 65 | 147 | 0.0 | 0.0 | 0.00 | 0.00 | 0.00 | 99 | 1046.5 |
| 20260901133638 | 65 | 146 | 0.0 | 0.0 | 0.00 | 0.00 | 0.00 | 99 | 1046.5 |
| 20260901133137 | 64 | 153 | 0.0 | 0.0 | 0.00 | 0.00 | 0.00 | 99 | 1046.4 |
| 20260901132631 | 63 | 144 | 0.0 | 0.0 | 0.00 | 0.00 | 0.00 | 99 | 1046.5 |
| 20260901132126 | 63 | 145 | 0.0 | 0.0 | 0.00 | 0.00 | 0.00 | 99 | 1046.7 |
| 20260901131626 | 62 | 145 | 0.0 | 0.0 | 0.00 | 0.00 | 0.00 | 99 | 1046.4 |
| 20260901131120 | 61 | 145 | 0.0 | 0.0 | 0.00 | 0.00 | 0.00 | 99 | 1046.4 |
| 20260901130615 | 61 | 126 | 0.0 | 0.0 | 0.00 | 0.00 | 0.00 | 99 | 1046.6 |
| 20260901130114 | 62 | 144 | 0.0 | 0.0 | 0.00 | 0.00 | 0.00 | 99 | 1046.3 |
| 20260901125612 | 62 | 144 | 0.0 | 0.0 | 0.00 | 0.00 | 0.00 | 99 | 1046.3 |
| 20260901125108 | 61 | 144 | 0.0 | 0.0 | 0.00 | 0.00 | 0.00 | 99 | 1046.2 |
| 20260901124602 | 60 | 144 | 0.0 | 0.0 | 0.00 | 0.00 | 0.00 | 99 | 1046.2 |
| 20260901124057 | 60 | 144 | 0.0 | 0.0 | 0.00 | 0.00 | 0.00 | 99 | 1045.9 |
| 20260901123551 | 59 | 144 | 0.0 | 0.0 | 0.00 | 0.00 | 0.00 | 99 | 1046.2 |
| 20260901123051 | 59 | 144 | 0.0 | 0.0 | 0.00 | 0.00 | 0.00 | 99 | 1045.9 |
| 20260901122549 | 59 | 128 | 0.0 | 0.0 | 0.00 | 0.00 | 0.00 | 99 | 1046.0 |
| 20260901122044 | 60 | 148 | 1.0 | 1.0 | 0.00 | 0.00 | 0.00 | 99 | 1046.0 |
| 20260901121544 | 60 | 148 | 0.0 | 0.0 | 0.00 | 0.00 | 0.00 | 99 | 1045.7 |
| 20260901121039 | 59 | 149 | 0.0 | 0.0 | 0.00 | 0.00 | 0.00 | 99 | 1046.0 |
| 20260901120539 | 59 | 149 | 0.0 | 0.0 | 0.00 | 0.00 | 0.00 | 99 | 1046.1 |
| 20260901120035 | 58 | 149 | 0.0 | 0.0 | 0.00 | 0.00 | 0.00 | 99 | 1045.9 |
| 20260901115530 | 58 | 149 | 0.0 | 0.0 | 0.00 | 0.00 | 0.00 | 99 | 1046.0 |
| 20260901115027 | 59 | 149 | 0.0 | 0.0 | 0.00 | 0.00 | 0.00 | 99 | 1046.0 |
| 20260901114523 | 59 | 149 | 0.0 | 0.0 | 0.00 | 0.00 | 0.00 | 99 | 1045.9 |
| 20260901114021 | 60 | 148 | 0.0 | 0.0 | 0.00 | 0.00 | 0.00 | 99 | 1045.8 |
| 20260901113520 | 60 | 149 | 0.0 | 0.0 | 0.00 | 0.00 | 0.00 | 99 | 1045.9 |
| 20260901113016 | 60 | 149 | 0.0 | 0.0 | 0.00 | 0.00 | 0.00 | 99 | 1045.9 |
| 20260901112510 | 60 | 149 | 0.0 | 0.0 | 0.00 | 0.00 | 0.00 | 99 | 1045.6 |
| 20260901112005 | 60 | 149 | 0.0 | 0.0 | 0.00 | 0.00 | 0.00 | 99 | 1045.6 |
| 20260901111504 | 60 | 149 | 0.0 | 0.0 | 0.00 | 0.00 | 0.00 | 99 | 1045.7 |
| 20260901111003 | 60 | 149 | 0.0 | 0.0 | 0.00 | 0.00 | 0.00 | 99 | 1045.6 |
| 20260901110458 | 60 | 149 | 0.0 | 0.0 | 0.00 | 0.00 | 0.00 | 99 | 1045.6 |
| 20260901105954 | 59 | 149 | 0.0 | 0.0 | 0.00 | 0.00 | 0.00 | 99 | 1045.5 |
| 20260901105450 | 59 | 149 | 0.0 | 0.0 | 0.00 | 0.00 | 0.00 | 99 | 1045.6 |
| 20260901104950 | 60 | 149 | 0.0 | 0.0 | 0.00 | 0.00 | 0.00 | 99 | 1045.6 |
| 20260901104446 | 60 | 149 | 0.0 | 0.0 | 0.00 | 0.00 | 0.00 | 99 | 1045.7 |
| 20260901103941 | 59 | 149 | 0.0 | 0.0 | 0.00 | 0.00 | 0.00 | 99 | 1045.6 |
| 20260901103441 | 59 | 149 | 0.0 | 0.0 | 0.00 | 0.00 | 0.00 | 99 | 1045.4 |
| 20260901102936 | 59 | 149 | 0.0 | 0.0 | 0.00 | 0.00 | 0.00 | 99 | 1045.5 |
| 20260901102430 | 59 | 149 | 0.0 | 0.0 | 0.00 | 0.00 | 0.00 | 99 | 1045.4 |
| 20260901101925 | 59 | 149 | 0.0 | 0.0 | 0.00 | 0.00 | 0.00 | 99 | 1045.4 |
| 20260901101421 | 58 | 149 | 0.0 | 0.0 | 0.00 | 0.00 | 0.00 | 99 | 1045.3 |
| 20260901100920 | 58 | 149 | 0.0 | 0.0 | 0.00 | 0.00 | 0.00 | 99 | 1045.4 |
| 20260901100414 | 58 | 149 | 0.0 | 0.0 | 0.00 | 0.00 | 0.00 | 99 | 1045.3 |
| 20260901095908 | 59 | 149 | 0.0 | 0.0 | 0.00 | 0.00 | 0.00 | 99 | 1044.9 |
| 20260901095407 | 59 | 149 | 0.0 | 0.0 | 0.00 | 0.00 | 0.00 | 99 | 1045.0 |
| 20260901094900 | 59 | 127 | 0.0 | 1.0 | 0.00 | 0.00 | 0.00 | 99 | 1045.1 |
| 20260901094354 | 59 | 152 | 0.0 | 0.0 | 0.00 | 0.00 | 0.00 | 99 | 1045.1 |
| 20260901093849 | 59 | 152 | 0.0 | 1.0 | 0.00 | 0.00 | 0.00 | 99 | 1044.8 |
| 20260901093348 | 59 | 153 | 0.0 | 0.0 | 0.00 | 0.00 | 0.00 | 99 | 1044.7 |
| 20260901092845 | 59 | 153 | 0.0 | 0.0 | 0.00 | 0.00 | 0.00 | 99 | 1044.8 |
| 20260901092340 | 59 | 152 | 0.0 | 0.0 | 0.00 | 0.00 | 0.00 | 99 | 1044.6 |
| 20260901091836 | 59 | 153 | 0.0 | 0.0 | 0.00 | 0.00 | 0.00 | 99 | 1044.7 |
| 20260901091336 | 59 | 153 | 0.0 | 0.0 | 0.00 | 0.00 | 0.00 | 99 | 1044.9 |
| 20260901090831 | 59 | 152 | 0.0 | 0.0 | 0.00 | 0.00 | 0.00 | 99 | 1044.6 |
| 20260901090331 | 59 | 152 | 0.0 | 0.0 | 0.00 | 0.00 | 0.00 | 99 | 1044.8 |
| 20260901085827 | 60 | 152 | 0.0 | 0.0 | 0.00 | 0.00 | 0.00 | 99 | 1044.8 |
| 20260901085322 | 60 | 153 | 0.0 | 0.0 | 0.00 | 0.00 | 0.00 | 99 | 1044.6 |
| 20260901084819 | 61 | 153 | 0.0 | 0.0 | 0.00 | 0.00 | 0.00 | 99 | 1044.6 |
| 20260901084314 | 60 | 152 | 0.0 | 0.0 | 0.00 | 0.00 | 0.00 | 99 | 1044.7 |
| 20260901083809 | 60 | 152 | 0.0 | 0.0 | 0.00 | 0.00 | 0.00 | 99 | 1044.2 |
| 20260901083309 | 60 | 152 | 0.0 | 0.0 | 0.00 | 0.00 | 0.00 | 99 | 1044.6 |
| 20260901082807 | 60 | 152 | 0.0 | 0.0 | 0.00 | 0.00 | 0.00 | 99 | 1044.6 |
| 20260901082306 | 60 | 152 | 0.0 | 0.0 | 0.00 | 0.00 | 0.00 | 99 | 1044.7 |
| 20260901081757 | 60 | 152 | 0.0 | 0.0 | 0.00 | 0.00 | 0.00 | 99 | 1044.8 |
| 20260901081252 | 61 | 152 | 0.0 | 0.0 | 0.00 | 0.00 | 0.00 | 99 | 1044.6 |
| 20260901080747 | 61 | 153 | 0.0 | 0.0 | 0.00 | 0.00 | 0.00 | 99 | 1044.8 |
| 20260901080246 | 61 | 153 | 0.0 | 0.0 | 0.00 | 0.00 | 0.00 | 99 | 1044.8 |
| 20260901075741 | 61 | 152 | 0.0 | 0.0 | 0.00 | 0.00 | 0.00 | 99 | 1044.8 |
| 20260901075235 | 61 | 152 | 0.0 | 0.0 | 0.00 | 0.00 | 0.00 | 99 | 1044.9 |
| 20260901074730 | 60 | 152 | 0.0 | 0.0 | 0.00 | 0.00 | 0.00 | 99 | 1045.1 |
| 20260901074225 | 61 | 152 | 0.0 | 0.0 | 0.00 | 0.00 | 0.00 | 99 | 1045.2 |
| 20260901073722 | 61 | 152 | 0.0 | 0.0 | 0.00 | 0.00 | 0.00 | 99 | 1045.3 |
| 20260901073217 | 60 | 152 | 0.0 | 0.0 | 0.00 | 0.00 | 0.00 | 99 | 1045.1 |
| 20260901072712 | 61 | 152 | 0.0 | 0.0 | 0.00 | 0.00 | 0.00 | 99 | 1045.2 |
| 20260901072207 | 61 | 152 | 0.0 | 0.0 | 0.00 | 0.00 | 0.00 | 99 | 1045.2 |
| 20260901071706 | 61 | 152 | 0.0 | 0.0 | 0.00 | 0.00 | 0.00 | 99 | 1044.9 |
| 20260901071201 | 61 | 152 | 0.0 | 0.0 | 0.00 | 0.00 | 0.00 | 99 | 1045.2 |
| 20260901070655 | 61 | 152 | 0.0 | 0.0 | 0.00 | 0.00 | 0.00 | 99 | 1045.2 |
| 20260901070150 | 61 | 152 | 0.0 | 0.0 | 0.00 | 0.00 | 0.00 | 99 | 1045.2 |
| 20260901065650 | 61 | 152 | 0.0 | 0.0 | 0.00 | 0.00 | 0.00 | 99 | 1045.3 |
| 20260901065144 | 61 | 152 | 0.0 | 0.0 | 0.00 | 0.00 | 0.00 | 99 | 1045.5 |
| 20260901064641 | 61 | 152 | 0.0 | 0.0 | 0.00 | 0.00 | 0.00 | 99 | 1045.5 |
| 20260901064138 | 61 | 152 | 0.0 | 0.0 | 0.00 | 0.00 | 0.00 | 99 | 1045.4 |
| 20260901063635 | 62 | 152 | 0.0 | 0.0 | 0.00 | 0.00 | 0.00 | 99 | 1045.2 |
| 20260901063130 | 62 | 152 | 0.0 | 0.0 | 0.00 | 0.00 | 0.00 | 99 | 1045.5 |
| 20260901062626 | 62 | 152 | 0.0 | 0.0 | 0.00 | 0.00 | 0.00 | 99 | 1045.4 |
| 20260901062121 | 62 | 152 | 0.0 | 0.0 | 0.00 | 0.00 | 0.00 | 99 | 1045.2 |
| 20260901061617 | 63 | 152 | 0.0 | 0.0 | 0.00 | 0.00 | 0.00 | 99 | 1045.1 |
| 20260901061111 | 63 | 152 | 0.0 | 0.0 | 0.00 | 0.00 | 0.00 | 99 | 1045.2 |
| 20260901060606 | 63 | 152 | 0.0 | 0.0 | 0.00 | 0.00 | 0.00 | 99 | 1045.3 |
| 20260901055556 | 63 | 152 | 0.0 | 0.0 | 0.00 | 0.00 | 0.00 | 99 | 1045.4 |
| 20260901055054 | 63 | 152 | 0.0 | 0.0 | 0.00 | 0.00 | 0.00 | 99 | 1045.4 |
| 20260901054550 | 63 | 152 | 0.0 | 0.0 | 0.00 | 0.00 | 0.00 | 99 | 1045.3 |
| 20260901054046 | 64 | 152 | 0.0 | 0.0 | 0.00 | 0.00 | 0.00 | 99 | 1045.3 |
| 20260901053542 | 64 | 152 | 0.0 | 0.0 | 0.00 | 0.00 | 0.00 | 99 | 1045.3 |
| 20260901053037 | 63 | 152 | 0.0 | 0.0 | 0.00 | 0.00 | 0.00 | 99 | 1045.2 |
| 20260901052538 | 63 | 152 | 0.0 | 0.0 | 0.00 | 0.00 | 0.00 | 99 | 1045.3 |
| 20260901052032 | 63 | 152 | 0.0 | 0.0 | 0.00 | 0.00 | 0.00 | 99 | 1045.2 |
| 20260901051527 | 63 | 152 | 0.0 | 0.0 | 0.00 | 0.00 | 0.00 | 99 | 1045.2 |
| 20260901051026 | 64 | 152 | 0.0 | 0.0 | 0.00 | 0.00 | 0.00 | 99 | 1045.0 |
| 20260901050521 | 64 | 152 | 0.0 | 0.0 | 0.00 | 0.00 | 0.00 | 99 | 1045.2 |
| 20260901050016 | 64 | 152 | 0.0 | 0.0 | 0.00 | 0.00 | 0.00 | 99 | 1045.1 |
| 20260901045511 | 64 | 152 | 0.0 | 0.0 | 0.00 | 0.00 | 0.00 | 99 | 1045.1 |
| 20260901045006 | 64 | 152 | 0.0 | 0.0 | 0.00 | 0.00 | 0.00 | 99 | 1045.1 |
| 20260901044502 | 64 | 152 | 0.0 | 0.0 | 0.00 | 0.00 | 0.00 | 99 | 1044.7 |
| 20260901043958 | 64 | 152 | 0.0 | 0.0 | 0.00 | 0.00 | 0.00 | 99 | 1044.7 |
| 20260901043453 | 64 | 152 | 0.0 | 0.0 | 0.00 | 0.00 | 0.00 | 99 | 1044.8 |
| 20260901042948 | 64 | 152 | 0.0 | 0.0 | 0.00 | 0.00 | 0.00 | 99 | 1044.9 |